Temperature
15 16 17 17 18 18 18 18 19 19 18 18 19 19 21 21 20 19 20 20 19 19 18 18 18 18 18 18 17 17 16 16 15 14 14 13 13 13 12 12 12 11 11 11
15 16 17 17 17 17 17 17 18 18 17 17 18 19 20 20 20 19 19 19 19 19 18 18 19 18 18 18 18 17 17 16 16 15 15 14 13 13 13 12 12 11 11 11
15 16 16 16 16 16 16 17 18 18 17 17 17 19 21 20 19 18 18 18 18 18 18 18 18 18 19 18 18 18 17 17 16 16 15 14 13 13 12 12 12 12 11 11
15 16 15 15 16 16 16 17 17 16 17 18 17 18 21 21 20 20 20 19 19 18 18 18 18 18 18 18 18 18 17 17 17 16 15 14 14 13 13 13 12 12 12 11
14 15 15 15 16 16 17 16 16 16 16 17 17 17 20 20 20 21 21 20 19 18 18 18 18 18 19 18 18 18 17 17 16 16 15 15 14 14 13 12 12 12 12 11
14 14 15 16 15 16 15 15 14 15 16 16 17 17 19 21 21 21 21 20 18 18 18 18 18 18 18 18 18 18 17 17 16 16 15 15 14 14 13 13 12 12 12 11
13 13 14 14 14 14 15 15 15 15 15 17 16 16 19 21 20 20 20 19 18 18 18 18 18 18 18 18 18 18 17 17 16 16 15 15 15 14 13 13 12 12 12 11
13 13 14 14 15 14 15 16 16 16 17 18 15 16 20 20 19 17 17 17 17 17 18 18 18 18 18 18 18 18 18 17 17 16 16 15 14 14 13 13 12 12 12 12
13 14 14 14 14 15 14 15 16 16 16 16 17 17 19 19 18 18 17 17 17 17 18 18 18 18 18 18 18 18 18 17 17 16 15 15 14 14 13 13 12 12 12 12
13 13 13 13 13 13 15 15 14 14 15 16 17 18 19 20 20 19 19 18 18 17 17 18 18 18 18 18 18 18 18 17 17 16 16 15 14 14 14 13 13 12 12 11
13 12 11 12 13 13 13 13 14 15 15 16 17 19 19 20 20 20 19 19 18 17 17 17 18 18 18 18 18 17 17 17 16 16 15 15 14 14 13 13 13 12 12 11
12 12 12 13 13 14 14 14 14 14 14 15 17 19 19 18 18 17 18 17 17 17 17 17 17 18 17 17 17 17 17 17 16 16 15 15 14 14 13 13 12 12 12 11
11 11 11 11 11 11 12 13 14 15 15 15 15 18 18 17 16 16 16 16 16 16 17 17 17 17 17 17 17 17 17 17 16 16 15 14 14 14 13 13 12 12 11 11
11 11 12 12 13 12 12 12 13 13 14 15 16 17 18 17 17 17 17 16 16 16 16 17 17 17 17 17 17 17 17 16 16 15 15 14 14 13 13 12 12 11 11 10
10 10 11 12 12 12 12 13 13 13 14 15 16 16 18 18 18 18 17 16 16 16 16 16 16 17 17 17 17 17 16 16 16 15 15 14 14 13 12 12 11 11 10 10
10 10 10 11 11 11 11 12 13 13 14 15 15 16 18 18 17 17 17 16 15 16 16 16 16 16 17 17 17 16 16 16 15 15 14 14 13 12 12 11 11 10 10 9
9 9 9 10 11 10 11 12 13 13 13 14 14 16 17 17 16 16 16 16 15 15 16 16 16 16 17 17 16 16 16 15 15 14 14 13 13 12 11 11 10 10 9 9
8 9 9 9 9 9 13 14 14 14 14 14 15 16 16 16 16 15 15 15 15 15 16 16 16 16 16 16 16 16 15 15 14 14 13 13 12 11 11 10 10 9 9 8
9 9 8 8 9 10 12 12 13 13 13 15 14 15 15 14 13 14 15 15 15 15 15 15 16 16 16 16 15 15 15 14 14 13 13 12 11 11 10 9 9 8 8 8
8 9 8 8 8 10 13 13 12 13 13 15 14 14 14 13 13 15 15 15 15 15 15 15 15 15 15 15 15 15 14 14 14 13 12 12 11 10 9 9 8 8 7 7
7 7 7 8 8 11 13 11 11 12 14 14 13 13 13 13 14 14 14 14 14 14 14 15 14 14 14 14 14 14 14 13 13 12 12 11 10 9 9 8 8 7 7 6
8 7 7 8 8 10 11 10 12 13 13 12 12 12 12 13 13 13 13 13 13 14 14 14 14 14 13 13 13 13 13 13 12 12 11 10 9 9 8 7 7 6 6 5
8 9 9 9 10 12 11 11 12 12 12 12 12 12 12 12 12 12 12 12 13 13 13 13 13 13 13 13 12 12 12 12 12 11 10 9 9 8 7 7 6 6 5 4
8 8 9 9 10 11 10 11 11 11 11 12 12 12 12 12 12 11 12 12 12 12 12 12 12 12 12 12 12 11 12 11 11 10 9 8 8 7 6 6 5 5 4 4
9 8 8 9 10 10 10 10 11 11 11 11 11 11 11 11 11 11 11 11 11 11 11 11 11 11 11 11 11 11 11 10 10 9 8 7 7 6 6 5 4 4 3 3
8 8 9 9 10 10 11 11 11 10 10 10 10 10 11 11 11 11 11 11 11 11 11 11 11 10 10 10 10 10 9 9 9 8 7 7 6 5 5 4 3 3 2 2
Wind_Speed
8 10 15 17 18 13 9 11 12 10 5 8 14 19 19 15 14 15 14 13 12 12 10 9 10 12 13 14 16 17 17 17 15 13 13 12 12 11 11 12 15 16 15 15
9 17 17 13 13 13 13 14 14 9 6 8 14 20 19 15 14 13 13 12 11 10 9 8 9 11 13 15 16 16 17 17 17 15 14 12 11 10 11 10 13 16 16 16
18 10 12 13 13 16 17 17 15 11 6 7 10 15 13 11 11 11 12 12 11 10 9 8 9 11 12 14 15 14 17 17 18 16 12 10 9 7 9 11 11 14 17 16
16 11 10 15 17 16 16 15 13 11 9 8 5 10 13 10 12 13 13 12 11 10 9 8 9 11 12 13 13 14 15 16 17 16 15 16 13 12 13 11 11 13 16 16
12 13 13 16 16 17 10 6 9 10 11 12 10 10 12 9 12 13 12 12 11 9 8 8 8 9 10 11 11 12 14 15 16 17 17 17 15 13 11 11 12 12 12 15
10 8 11 13 9 12 7 5 4 5 7 12 14 12 12 10 12 10 10 10 9 8 8 7 7 7 8 9 10 11 13 14 15 17 17 18 17 15 13 13 12 11 10 11
10 10 7 6 7 10 11 8 6 7 8 10 8 11 13 11 10 10 9 9 9 8 8 8 8 8 8 9 10 11 13 14 15 16 17 17 17 16 16 14 13 12 10 10
13 12 14 10 12 12 17 15 11 8 9 8 8 12 11 9 9 10 11 10 9 10 9 9 8 8 8 9 10 12 13 14 14 15 16 15 15 13 12 14 12 12 10 10
12 11 9 11 9 12 12 14 12 8 7 9 9 9 11 10 11 12 12 11 12 11 10 9 8 8 8 9 10 12 13 13 14 14 14 14 15 14 13 12 12 10 10 9
8 8 7 8 6 7 9 9 7 9 8 11 11 13 10 10 12 11 12 13 12 11 11 10 9 8 8 8 9 10 11 12 12 13 13 11 13 13 12 11 12 11 11 10
10 9 5 8 14 16 11 11 9 9 8 9 11 10 8 11 9 10 11 11 11 12 11 9 8 7 7 7 8 10 10 11 11 12 12 12 12 12 11 11 11 11 10 10
10 7 8 10 7 9 16 16 15 11 10 9 10 9 2 6 6 7 8 8 9 10 9 9 8 7 7 8 9 9 10 10 10 10 11 11 11 11 11 11 11 10 10 9
9 7 7 6 6 6 11 15 17 15 11 12 14 11 2 3 5 7 8 8 8 8 9 9 8 8 8 8 8 9 9 10 10 10 10 10 11 11 11 10 10 9 9 9
7 8 12 14 8 9 12 16 17 17 14 18 21 21 13 10 10 9 9 9 8 8 9 9 9 9 9 8 9 9 9 9 9 10 10 10 11 10 10 9 9 9 9 8
7 10 13 14 11 10 14 18 21 24 24 21 22 23 21 17 14 12 10 9 9 9 9 10 10 9 9 9 9 9 9 9 9 10 10 10 9 9 9 9 8 8 8 8
9 9 11 15 13 12 15 19 22 25 26 27 26 26 21 18 16 15 14 11 11 11 11 11 11 10 10 10 10 9 9 9 10 10 10 9 8 9 9 8 8 8 7 7
9 9 8 12 10 8 16 22 23 22 23 23 27 26 18 18 18 17 15 14 13 13 12 12 12 11 10 10 10 10 10 9 10 10 9 9 9 9 9 8 8 8 7 7
11 12 7 6 7 13 13 11 19 22 23 23 23 21 19 19 18 17 16 15 15 14 13 12 11 10 9 9 9 9 9 10 10 9 9 9 9 9 8 8 8 7 6 6
16 13 7 6 10 13 13 9 13 17 21 20 23 22 20 13 11 16 16 16 16 15 13 11 9 9 8 9 9 10 10 10 10 10 10 9 9 9 9 8 8 6 6 6
14 15 10 8 9 12 11 6 7 9 16 14 17 20 18 10 11 14 11 12 13 12 10 8 7 7 8 9 10 10 10 10 11 10 9 9 9 9 9 8 7 5 5 5
11 12 15 14 12 12 9 3 8 10 9 4 11 14 14 14 16 11 6 8 9 8 8 7 7 7 7 9 10 11 10 10 9 8 8 8 8 8 8 7 6 5 5 4
11 10 13 12 12 13 6 8 11 9 5 3 5 8 10 13 14 12 9 8 7 7 6 6 6 6 6 8 10 10 10 8 8 8 8 8 8 7 6 6 6 5 5 5
11 12 9 11 13 9 9 12 11 7 7 7 7 7 8 10 12 11 10 10 9 7 6 6 6 6 6 8 9 10 8 9 9 9 9 8 7 6 6 7 6 5 5 4
9 9 10 12 16 14 13 14 12 10 10 10 9 9 9 10 11 11 10 9 8 7 6 5 6 7 6 7 8 8 8 9 10 9 8 8 7 6 6 5 5 5 5 4
12 8 12 17 18 14 16 17 17 14 13 13 12 11 11 11 12 11 10 9 7 6 5 6 7 7 7 7 7 7 9 10 10 9 8 7 6 6 5 4 3 4 4 4
15 15 16 16 13 11 14 13 14 14 14 14 14 13 12 11 12 10 10 8 6 6 5 6 7 6 6 7 7 8 9 10 10 9 8 6 6 5 5 4 2 1 2 2
Wind_Direction
193 207 214 213 217 233 236 235 242 245 235 246 257 267 271 268 256 254 254 251 247 241 236 225 218 211 206 203 203 202 200 200 197 197 200 202 207 209 211 213 214 211 210 210
201 222 222 219 218 224 232 241 248 254 239 253 271 274 272 262 253 250 249 246 241 235 227 220 212 204 202 201 201 201 201 199 198 199 199 203 205 210 212 211 214 214 213 211
217 223 211 208 211 219 230 238 244 250 265 247 281 274 256 246 245 246 243 242 240 235 232 223 210 204 201 201 201 200 200 199 199 198 197 194 196 203 207 211 213 214 214 213
226 221 205 210 216 216 232 231 238 244 256 260 256 278 265 250 251 242 235 229 230 228 229 224 212 205 203 203 200 201 199 199 198 196 197 197 201 208 212 211 212 212 213 215
218 212 211 218 220 213 229 211 221 236 248 261 242 257 267 247 247 237 226 220 221 223 224 222 215 209 204 199 195 198 197 198 197 198 200 204 211 216 216 212 213 213 212 214
231 218 221 225 221 207 173 163 192 223 241 251 238 238 264 239 237 232 219 216 215 219 222 221 215 207 202 195 193 194 196 198 198 199 203 207 212 214 213 211 212 213 213 212
223 222 213 197 187 187 190 195 213 220 224 242 219 234 251 249 240 240 236 227 221 221 220 215 210 204 199 194 193 194 196 198 198 200 205 209 213 215 216 215 216 214 214 213
211 219 205 200 203 196 202 207 218 231 238 239 216 236 248 251 247 247 248 247 240 228 219 214 211 207 202 198 196 195 197 198 197 200 205 209 212 214 218 217 218 217 218 217
213 223 198 205 207 198 197 214 229 250 263 259 237 245 266 252 242 237 235 233 229 221 214 213 209 207 204 201 200 197 196 197 198 201 204 208 210 212 216 217 219 220 221 218
218 226 201 192 185 214 214 188 187 213 230 242 245 242 240 229 225 220 220 220 220 216 214 214 213 211 211 208 201 199 199 199 199 200 202 206 209 211 214 215 217 218 219 216
216 216 199 191 203 200 189 194 203 211 229 236 248 243 228 237 238 234 228 224 220 216 215 215 215 213 211 206 199 197 198 199 198 200 201 203 206 207 209 213 215 216 217 215
206 218 225 219 214 227 211 208 202 211 222 231 251 256 210 242 257 253 247 240 234 226 221 218 217 214 209 204 200 197 196 198 198 196 198 201 202 202 206 211 213 213 215 215
192 206 219 218 214 209 219 217 217 228 237 232 238 248 214 268 272 259 256 254 240 229 226 225 223 218 212 206 201 198 197 197 194 192 194 196 198 200 204 207 208 209 211 212
198 215 222 229 231 208 218 219 216 218 230 237 238 248 253 261 267 269 268 265 252 238 230 224 222 221 215 208 202 198 196 192 188 187 191 196 197 198 200 202 203 204 205 208
199 229 236 251 257 234 230 227 219 221 230 240 246 247 251 258 265 270 271 264 255 247 237 229 226 224 216 207 201 196 193 188 184 186 191 196 194 193 194 196 198 199 202 205
199 224 232 243 245 243 244 236 228 228 234 241 251 254 254 260 264 265 264 261 255 251 245 237 231 224 216 209 201 193 191 186 183 187 191 188 186 187 190 193 194 196 199 201
205 211 221 241 240 251 247 233 226 227 229 234 243 249 256 257 256 257 259 260 257 254 251 243 234 224 217 208 199 194 188 180 182 186 186 184 184 185 188 187 190 194 197 199
214 216 221 238 221 236 250 231 225 232 237 235 243 252 252 254 261 262 258 258 258 255 252 246 236 225 216 204 194 186 177 178 181 184 184 183 183 183 182 185 190 193 195 199
215 213 213 215 236 256 261 242 221 227 243 239 242 250 255 262 271 261 255 251 251 251 249 246 235 221 206 194 184 174 176 178 181 186 185 183 181 180 181 186 190 190 191 198
211 212 215 217 231 241 251 227 212 221 251 245 238 244 247 234 247 256 254 248 249 250 246 236 220 205 197 190 178 176 180 182 188 188 183 179 180 180 183 185 184 184 187 192
195 204 215 223 234 251 257 197 168 207 251 252 233 241 238 227 236 259 261 254 251 248 240 225 207 201 196 181 175 182 184 192 188 176 171 172 176 178 178 175 176 175 176 182
204 205 212 217 228 242 201 169 198 238 280 267 255 248 244 245 252 258 259 260 254 245 235 217 206 204 192 180 180 185 191 185 168 163 165 168 169 165 167 168 170 174 176 183
222 220 218 216 231 251 200 217 236 259 262 264 270 272 260 260 263 262 256 254 251 245 236 219 207 200 192 187 188 190 184 166 161 161 164 164 162 164 168 171 172 176 182 190
232 229 236 242 246 250 246 250 258 258 262 269 270 272 263 265 268 267 261 252 247 242 233 216 203 200 199 194 194 189 170 164 161 163 163 162 164 165 168 171 176 182 190 196
236 218 232 245 253 262 257 254 258 260 267 272 271 268 263 263 267 264 261 253 243 235 226 212 207 205 199 190 189 177 169 165 162 161 161 163 166 166 168 171 182 195 204 206
234 231 233 245 249 252 264 265 261 259 260 262 267 274 273 263 261 261 257 253 243 233 219 210 208 202 195 185 181 175 172 168 161 160 162 165 168 167 167 163 151 123 205 207
Height
1499 1500 1496 1494 1496 1496 1496 1496 1496 1495 1497 1499 1493 1487 1482 1483 1483 1482 1481 1481 1481 1481 1482 1484 1485 1488 1490 1493 1496 1498 1501 1505 1508 1510 1512 1515 1517 1520 1522 1524 1525 1527 1529 1530
1497 1492 1489 1492 1495 1497 1497 1497 1495 1494 1497 1497 1490 1483 1476 1475 1475 1475 1475 1475 1476 1477 1478 1479 1480 1482 1484 1487 1490 1493 1496 1499 1502 1504 1507 1510 1513 1515 1517 1519 1521 1522 1524 1526
1487 1485 1488 1492 1495 1497 1495 1494 1492 1494 1494 1495 1493 1477 1469 1468 1470 1471 1471 1471 1471 1472 1473 1474 1475 1477 1479 1482 1485 1488 1491 1494 1497 1500 1503 1505 1508 1510 1512 1513 1515 1517 1519 1521
1485 1485 1487 1488 1489 1491 1491 1490 1493 1495 1495 1489 1493 1482 1463 1462 1463 1463 1464 1465 1466 1467 1468 1469 1471 1472 1474 1477 1480 1483 1486 1488 1491 1494 1497 1499 1501 1503 1505 1508 1510 1512 1514 1515
1481 1481 1484 1484 1483 1486 1486 1489 1492 1493 1493 1491 1488 1487 1462 1459 1458 1455 1457 1459 1461 1463 1464 1465 1466 1468 1470 1473 1475 1478 1481 1483 1486 1489 1491 1494 1496 1498 1501 1503 1505 1506 1508 1509
1477 1479 1479 1479 1482 1485 1488 1491 1494 1494 1493 1491 1479 1481 1462 1451 1449 1449 1452 1455 1457 1459 1460 1461 1462 1464 1466 1468 1471 1473 1476 1478 1481 1483 1486 1488 1490 1493 1495 1497 1499 1501 1502 1503
1478 1477 1477 1478 1481 1485 1485 1487 1492 1491 1489 1478 1475 1476 1457 1444 1446 1448 1450 1452 1454 1455 1456 1457 1459 1460 1462 1464 1466 1468 1471 1473 1475 1478 1480 1483 1485 1488 1489 1491 1493 1495 1496 1497
1472 1471 1471 1472 1472 1476 1478 1478 1481 1482 1475 1467 1475 1468 1446 1442 1445 1446 1448 1449 1449 1451 1452 1454 1455 1456 1458 1460 1462 1464 1466 1468 1470 1473 1475 1478 1480 1482 1484 1486 1487 1489 1490 1491
1464 1463 1464 1467 1468 1470 1474 1474 1470 1474 1474 1471 1460 1453 1443 1439 1439 1441 1443 1444 1445 1446 1448 1449 1451 1452 1454 1455 1457 1459 1461 1464 1466 1468 1470 1472 1474 1476 1478 1480 1482 1483 1484 1485
1460 1463 1463 1465 1468 1468 1467 1467 1476 1476 1475 1469 1453 1448 1439 1432 1431 1434 1436 1438 1440 1442 1444 1445 1447 1448 1450 1451 1453 1455 1457 1459 1461 1463 1465 1467 1469 1471 1472 1474 1475 1477 1478 1479
1459 1462 1465 1464 1461 1461 1467 1469 1466 1466 1462 1458 1451 1439 1427 1426 1427 1429 1431 1433 1435 1438 1440 1441 1442 1444 1445 1447 1449 1450 1452 1455 1457 1459 1460 1462 1464 1465 1467 1468 1470 1471 1472 1473
1456 1457 1457 1456 1455 1456 1455 1455 1459 1462 1460 1455 1447 1436 1424 1426 1427 1429 1429 1430 1432 1433 1435 1437 1438 1440 1441 1442 1444 1446 1448 1450 1452 1454 1455 1457 1458 1460 1461 1463 1464 1465 1466 1467
1453 1455 1457 1456 1459 1458 1455 1451 1452 1452 1451 1450 1448 1434 1424 1427 1427 1428 1428 1428 1428 1430 1431 1432 1434 1435 1436 1438 1439 1441 1443 1445 1447 1449 1450 1452 1453 1454 1456 1457 1459 1460 1461 1461
1450 1449 1448 1444 1440 1444 1449 1449 1449 1451 1448 1442 1435 1427 1423 1423 1424 1424 1425 1424 1424 1425 1426 1427 1428 1430 1431 1433 1434 1436 1438 1440 1442 1443 1445 1447 1448 1449 1451 1452 1453 1454 1455 1456
1447 1446 1443 1440 1439 1441 1439 1439 1441 1441 1436 1433 1423 1423 1419 1419 1420 1421 1421 1421 1421 1421 1422 1422 1423 1425 1426 1428 1429 1431 1433 1435 1436 1438 1440 1441 1443 1444 1446 1447 1448 1449 1450 1450
1443 1443 1441 1440 1437 1437 1435 1431 1431 1431 1428 1425 1422 1416 1414 1416 1417 1417 1417 1417 1416 1416 1416 1417 1418 1419 1420 1422 1424 1425 1427 1429 1431 1433 1435 1436 1438 1439 1440 1442 1443 1444 1445 1445
1439 1440 1440 1435 1434 1436 1430 1419 1421 1420 1418 1418 1415 1409 1411 1412 1411 1412 1412 1412 1411 1411 1411 1411 1412 1413 1414 1416 1418 1420 1422 1424 1426 1427 1429 1431 1432 1433 1435 1436 1437 1438 1439 1440
1436 1436 1437 1434 1436 1435 1409 1405 1407 1408 1407 1408 1406 1403 1405 1405 1405 1406 1405 1405 1404 1404 1405 1405 1406 1407 1409 1411 1413 1415 1417 1418 1420 1422 1424 1425 1427 1428 1429 1431 1432 1433 1433 1434
1428 1431 1433 1432 1427 1416 1405 1403 1404 1404 1400 1398 1399 1398 1399 1401 1401 1398 1397 1398 1398 1398 1399 1399 1400 1401 1403 1405 1407 1409 1411 1413 1415 1416 1418 1419 1421 1423 1424 1425 1426 1427 1428 1429
1421 1424 1427 1426 1422 1412 1394 1394 1397 1401 1396 1390 1391 1390 1392 1397 1398 1388 1389 1391 1391 1392 1392 1393 1394 1395 1397 1399 1401 1403 1405 1407 1409 1411 1413 1414 1416 1417 1419 1420 1421 1422 1423 1423
1417 1419 1419 1417 1413 1398 1390 1394 1396 1399 1387 1383 1383 1384 1386 1388 1385 1384 1385 1385 1385 1385 1386 1387 1388 1389 1391 1393 1395 1397 1399 1402 1404 1406 1408 1409 1411 1413 1414 1415 1416 1417 1417 1418
1405 1407 1408 1408 1407 1397 1388 1391 1389 1382 1380 1381 1380 1380 1380 1380 1379 1380 1381 1380 1379 1380 1380 1381 1382 1384 1385 1387 1389 1391 1394 1396 1399 1401 1403 1404 1406 1407 1409 1410 1411 1411 1412 1412
1396 1393 1391 1391 1386 1380 1381 1380 1378 1379 1379 1378 1377 1377 1377 1376 1375 1374 1375 1375 1374 1375 1375 1376 1377 1378 1380 1382 1384 1386 1389 1391 1393 1395 1397 1399 1401 1402 1404 1405 1405 1406 1406 1407
1388 1388 1387 1383 1376 1376 1377 1376 1375 1375 1374 1374 1374 1374 1373 1371 1370 1369 1369 1369 1369 1369 1370 1370 1372 1373 1374 1377 1379 1381 1383 1386 1388 1390 1392 1394 1395 1397 1398 1399 1400 1401 1401 1401
1379 1382 1380 1375 1371 1373 1370 1371 1370 1371 1370 1370 1369 1369 1368 1367 1365 1364 1364 1363 1363 1363 1364 1365 1366 1368 1369 1371 1373 1375 1378 1380 1382 1384 1386 1388 1390 1392 1393 1394 1395 1396 1396 1397
1371 1372 1371 1365 1364 1366 1363 1364 1365 1365 1364 1364 1364 1362 1361 1361 1360 1359 1358 1358 1358 1358 1359 1360 1361 1363 1364 1365 1367 1370 1372 1374 1376 1378 1380 1382 1384 1386 1387 1388 1389 1390 1392 1392